TK981 LTFH-LTAW

Flight info

Callsign TK981
Flight time 0h 28m
Altitude 10000
Route ALMUS
Aircraft C408/M-SDFGRY/S

Departure

Time 2026-04-25 06:14
Airport Samsun-Çarşamba Airport (LTFH)

Arrival

Time 2026-04-25 06:42
Airport Tokat Airport (LTAW)
Time Latitude Longitude Altitude Speed Heading
2026-04-25 06:08 41.25761 36.55640 8 ft 0 kts 315°
2026-04-25 06:09 41.25778 36.55623 7 ft 4 kts 336°
2026-04-25 06:09 41.25827 36.55638 7 ft 10 kts 26°
2026-04-25 06:10 41.25904 36.55697 16 ft 15 kts 42°
2026-04-25 06:10 41.25968 36.55780 16 ft 15 kts 45°
2026-04-25 06:10 41.26013 36.55856 15 ft 11 kts 76°
2026-04-25 06:10 41.25981 36.55957 14 ft 14 kts 136°
2026-04-25 06:11 41.25903 36.56063 15 ft 18 kts 134°
2026-04-25 06:11 41.25812 36.56191 17 ft 20 kts 134°
2026-04-25 06:11 41.25725 36.56309 6 ft 9 kts 139°
2026-04-25 06:11 41.25695 36.56347 6 ft 4 kts 86°
2026-04-25 06:12 41.25714 36.56351 6 ft 0 kts 311°
2026-04-25 06:12 41.25808 36.56212 16 ft 48 kts 312°
2026-04-25 06:12 41.26152 36.55729 15 ft 95 kts 313°
2026-04-25 06:13 41.26691 36.55022 178 ft 114 kts 316°
2026-04-25 06:13 41.27322 36.54264 335 ft 135 kts 317°
2026-04-25 06:13 41.28085 36.53335 423 ft 155 kts 317°
2026-04-25 06:14 41.29495 36.51135 955 ft 154 kts 310°
2026-04-25 06:14 41.30211 36.50068 1223 ft 155 kts 312°
2026-04-25 06:14 41.30948 36.49022 1488 ft 155 kts 312°
2026-04-25 06:14 41.31692 36.47978 1778 ft 155 kts 311°
2026-04-25 06:15 41.32217 36.46772 2046 ft 154 kts 284°
2026-04-25 06:15 41.32276 36.45372 2316 ft 152 kts 258°
2026-04-25 06:15 41.31859 36.44092 2593 ft 150 kts 231°
2026-04-25 06:15 41.31122 36.43118 2878 ft 149 kts 222°
2026-04-25 06:16 41.30366 36.42159 3168 ft 153 kts 223°
2026-04-25 06:16 41.29578 36.41168 3462 ft 158 kts 223°
2026-04-25 06:16 41.28772 36.40157 3730 ft 163 kts 223°
2026-04-25 06:16 41.27936 36.39109 3997 ft 166 kts 223°
2026-04-25 06:17 41.27085 36.38043 4254 ft 168 kts 223°
2026-04-25 06:17 41.26159 36.37089 4517 ft 171 kts 206°
2026-04-25 06:17 41.25011 36.36702 4771 ft 175 kts 183°
2026-04-25 06:17 41.23816 36.36984 5030 ft 177 kts 159°
2026-04-25 06:18 41.22805 36.37918 5286 ft 179 kts 135°
2026-04-25 06:18 41.21946 36.39131 5547 ft 180 kts 134°
2026-04-25 06:18 41.21081 36.40339 5807 ft 180 kts 134°
2026-04-25 06:18 41.20216 36.41549 6063 ft 180 kts 134°
2026-04-25 06:19 41.19369 36.42735 6320 ft 180 kts 134°
2026-04-25 06:19 41.18508 36.43940 6575 ft 180 kts 134°
2026-04-25 06:19 41.17639 36.45154 6820 ft 181 kts 134°
2026-04-25 06:19 41.16764 36.46376 7067 ft 183 kts 135°
2026-04-25 06:20 41.15884 36.47607 7317 ft 184 kts 135°
2026-04-25 06:20 41.15008 36.48828 7562 ft 185 kts 134°
2026-04-25 06:20 41.14118 36.50075 7804 ft 186 kts 134°
2026-04-25 06:20 41.13222 36.51320 8057 ft 186 kts 134°
2026-04-25 06:21 41.12328 36.52569 8312 ft 186 kts 134°
2026-04-25 06:21 41.11431 36.53818 8567 ft 187 kts 134°
2026-04-25 06:21 41.10531 36.55073 8826 ft 188 kts 134°
2026-04-25 06:21 41.09638 36.56316 9087 ft 189 kts 134°
2026-04-25 06:22 41.08729 36.57580 9338 ft 189 kts 134°
2026-04-25 06:22 41.07810 36.58827 9598 ft 189 kts 140°
2026-04-25 06:22 41.06657 36.59625 9854 ft 187 kts 166°
2026-04-25 06:22 41.05394 36.59945 10103 ft 186 kts 173°
2026-04-25 06:23 41.04072 36.60257 10127 ft 199 kts 172°
2026-04-25 06:23 41.02680 36.60587 10132 ft 206 kts 172°
2026-04-25 06:23 41.01254 36.60928 10134 ft 210 kts 172°
2026-04-25 06:23 40.99809 36.61271 10133 ft 212 kts 172°
2026-04-25 06:24 40.98370 36.61611 10134 ft 213 kts 172°
2026-04-25 06:24 40.96908 36.61958 10137 ft 213 kts 172°
2026-04-25 06:24 40.95452 36.62301 10126 ft 212 kts 172°
2026-04-25 06:24 40.94003 36.62644 10138 ft 212 kts 172°
2026-04-25 06:25 40.92548 36.62988 10145 ft 213 kts 172°
2026-04-25 06:25 40.91088 36.63334 10140 ft 212 kts 172°
2026-04-25 06:25 40.89631 36.63677 10144 ft 212 kts 172°
2026-04-25 06:25 40.88169 36.64023 10144 ft 214 kts 172°
2026-04-25 06:26 40.86718 36.64365 10141 ft 213 kts 172°
2026-04-25 06:26 40.85259 36.64708 10160 ft 213 kts 172°
2026-04-25 06:26 40.83801 36.65053 10199 ft 212 kts 172°
2026-04-25 06:26 40.82343 36.65395 10195 ft 212 kts 172°
2026-04-25 06:27 40.80908 36.65735 10204 ft 212 kts 172°
2026-04-25 06:27 40.79458 36.66075 10200 ft 211 kts 172°
2026-04-25 06:27 40.78008 36.66417 10206 ft 211 kts 172°
2026-04-25 06:27 40.76557 36.66683 10167 ft 210 kts 184°
2026-04-25 06:28 40.75629 36.66374 10134 ft 207 kts 209°
2026-04-25 06:28 40.74516 36.65210 10149 ft 204 kts 226°
2026-04-25 06:28 40.73509 36.63896 10169 ft 203 kts 227°
2026-04-25 06:28 40.72109 36.62266 10158 ft 206 kts 208°
2026-04-25 06:29 40.71165 36.61965 10138 ft 211 kts 183°
2026-04-25 06:29 40.69705 36.62254 10143 ft 212 kts 169°
2026-04-25 06:29 40.68292 36.62691 10167 ft 211 kts 169°
2026-04-25 06:29 40.66851 36.63057 10182 ft 210 kts 172°
2026-04-25 06:30 40.65403 36.63347 10190 ft 210 kts 173°
2026-04-25 06:30 40.63952 36.63637 10208 ft 210 kts 173°
2026-04-25 06:30 40.62505 36.63935 10217 ft 210 kts 173°
2026-04-25 06:30 40.61059 36.64236 10203 ft 210 kts 173°
2026-04-25 06:31 40.59607 36.64537 10201 ft 211 kts 173°
2026-04-25 06:31 40.58160 36.64837 10205 ft 212 kts 173°
2026-04-25 06:31 40.56696 36.65138 10016 ft 219 kts 173°
2026-04-25 06:31 40.55174 36.65454 9709 ft 224 kts 172°
2026-04-25 06:32 40.53625 36.65774 9391 ft 226 kts 172°
2026-04-25 06:32 40.52073 36.66095 9080 ft 225 kts 172°
2026-04-25 06:32 40.50598 36.66401 8825 ft 189 kts 173°
2026-04-25 06:32 40.49339 36.66662 8725 ft 182 kts 173°
2026-04-25 06:33 40.48086 36.66919 8497 ft 181 kts 173°
2026-04-25 06:33 40.46865 36.67169 8271 ft 178 kts 173°
2026-04-25 06:33 40.45647 36.67421 8049 ft 175 kts 172°
2026-04-25 06:33 40.44450 36.67668 7831 ft 173 kts 172°
2026-04-25 06:34 40.43261 36.67913 7601 ft 173 kts 172°
2026-04-25 06:34 40.42078 36.68156 7377 ft 171 kts 172°
2026-04-25 06:34 40.40900 36.68399 7150 ft 171 kts 172°
2026-04-25 06:34 40.39744 36.68636 6927 ft 169 kts 172°
2026-04-25 06:35 40.38586 36.68875 6712 ft 169 kts 172°
2026-04-25 06:35 40.37426 36.69113 6483 ft 168 kts 171°
2026-04-25 06:35 40.36271 36.69138 6255 ft 165 kts 192°
2026-04-25 06:35 40.35246 36.68579 6030 ft 156 kts 214°
2026-04-25 06:36 40.34491 36.67592 5830 ft 153 kts 235°
2026-04-25 06:36 40.34076 36.66342 5637 ft 152 kts 256°
2026-04-25 06:36 40.34015 36.64957 5443 ft 152 kts 269°
2026-04-25 06:36 40.34022 36.63566 5238 ft 152 kts 269°
2026-04-25 06:37 40.34029 36.62302 5034 ft 130 kts 268°
2026-04-25 06:37 40.34034 36.61156 4906 ft 122 kts 269°
2026-04-25 06:37 40.34035 36.60045 4823 ft 124 kts 269°
2026-04-25 06:37 40.34038 36.58894 4743 ft 131 kts 269°
2026-04-25 06:38 40.34045 36.57736 4716 ft 121 kts 269°
2026-04-25 06:38 40.34049 36.56623 4569 ft 122 kts 269°
2026-04-25 06:38 40.34054 36.55543 4444 ft 117 kts 269°
2026-04-25 06:38 40.34058 36.54464 4345 ft 119 kts 269°
2026-04-25 06:39 40.34056 36.53370 4241 ft 120 kts 266°
2026-04-25 06:39 40.33975 36.52250 4033 ft 124 kts 264°
2026-04-25 06:39 40.33909 36.51138 3840 ft 124 kts 264°
2026-04-25 06:39 40.33840 36.50012 3644 ft 123 kts 264°
2026-04-25 06:40 40.33768 36.48897 3461 ft 122 kts 264°
2026-04-25 06:40 40.33702 36.47787 3296 ft 121 kts 266°
2026-04-25 06:40 40.33740 36.46698 3101 ft 118 kts 276°
2026-04-25 06:40 40.33829 36.45649 2927 ft 114 kts 274°
2026-04-25 06:41 40.33857 36.44640 2794 ft 111 kts 265°
2026-04-25 06:41 40.33747 36.43624 2531 ft 116 kts 252°
2026-04-25 06:41 40.33484 36.42639 2326 ft 113 kts 248°
2026-04-25 06:41 40.33216 36.41689 2099 ft 108 kts 244°
2026-04-25 06:42 40.32958 36.40770 1927 ft 107 kts 250°
2026-04-25 06:42 40.32722 36.39893 1867 ft 94 kts 249°
2026-04-25 06:42 40.32594 36.39438 1866 ft 8 kts 252°
2026-04-25 06:42 40.32562 36.39304 1868 ft 21 kts 251°
2026-04-25 06:43 40.32502 36.39088 1865 ft 30 kts 250°
2026-04-25 06:43 40.32429 36.38818 1864 ft 31 kts 252°
2026-04-25 06:43 40.32365 36.38576 1864 ft 17 kts 250°
2026-04-25 06:43 40.32327 36.38452 1863 ft 14 kts 250°
2026-04-25 06:44 40.32292 36.38324 1868 ft 15 kts 251°
2026-04-25 06:44 40.32257 36.38187 1870 ft 17 kts 251°
2026-04-25 06:44 40.32218 36.38043 1869 ft 11 kts 250°
2026-04-25 06:44 40.32173 36.37966 1870 ft 10 kts 191°
2026-04-25 06:45 40.32094 36.37991 1869 ft 14 kts 159°
2026-04-25 06:45 40.32010 36.38030 1868 ft 12 kts 161°
2026-04-25 06:45 40.31966 36.38055 1868 ft 7 kts 144°
2026-04-25 06:45 40.31927 36.38095 1868 ft 8 kts 162°
2026-04-25 06:46 40.31900 36.38107 1868 ft 0 kts 160°
2026-04-25 06:46 40.34057 36.54560 4349 ft 119 kts 269°
2026-04-25 06:46 40.33529 36.42799 2360 ft 114 kts 249°
2026-04-25 06:46 40.33249 36.41789 2127 ft 108 kts 246°
2026-04-25 06:47 40.32972 36.40823 1949 ft 107 kts 250°
2026-04-25 06:47 40.32725 36.39903 1867 ft 94 kts 249°
2026-04-25 06:47 40.33159 36.41518 2062 ft 108 kts 245°
2026-04-25 06:47 40.32901 36.40545 1902 ft 106 kts 249°
2026-04-25 06:48 40.32659 36.39672 1867 ft 82 kts 253°
2026-04-25 06:48 40.33267 36.41848 2140 ft 108 kts 248°
2026-04-25 06:48 40.32981 36.40861 1957 ft 106 kts 250°
2026-04-25 06:48 40.32729 36.39920 1868 ft 95 kts 249°
2026-04-25 06:49 40.32796 36.40158 1885 ft 97 kts 249°
2026-04-25 06:49 40.33075 36.41234 2017 ft 107 kts 249°
2026-04-25 06:49 40.32851 36.40354 1890 ft 104 kts 249°
2026-04-25 06:49 40.32634 36.39573 1866 ft 64 kts 250°
2026-04-25 06:50 40.32577 36.39386 1867 ft 3 kts 247°
2026-04-25 06:50 41.25884 36.55676 12 ft 14 kts 32°
2026-04-25 06:50 41.25950 36.55756 12 ft 13 kts 45°
2026-04-25 06:50 41.26005 36.55935 10 ft 80 kts 313°
2026-04-25 06:51 41.26479 36.55282 53 ft 113 kts 315°
2026-04-25 06:51 41.27081 36.54555 312 ft 124 kts 317°
2026-04-25 06:51 41.27799 36.53684 323 ft 154 kts 317°
2026-04-25 06:51 41.28564 36.52666 585 ft 157 kts 309°